Regional Weather Roundup
Issued by NWS

Home | Current Version | Previous Version | Graphics & Text | Print | Product List | Glossary On
Versions: 1 2 3 4 5 6 7 8 9 10 11 12 13 14 15 16 17 18 19 20 21 22 23 24 25 26 27 28 29 30 31 32 33 34 35 36 37 38 39 40 41 42 43 44 45 46 47 48 49 50
542
ASUS43 KDTX 200801
RWRMI
MICHIGAN HOURLY REGIONAL WEATHER ROUNDUP
NATIONAL WEATHER SERVICE DETROIT/PONTIAC MI
300 AM EST FRI JAN 20 2017

NOTE: "FAIR" INDICATES FEW OR NO CLOUDS BELOW 12,000 FEET WITH NO
SIGNIFICANT WEATHER AND/OR OBSTRUCTION TO VISIBILITY.

MIZ047>049-052>055-059>063-066>070-074>076-081>083-200900-
SOUTHEAST LOWER MICHIGAN

CITY           SKY/WX    TMP DP  RH WIND       PRES   REMARKS
ADRIAN         FOG       32  32 100 E12       29.77F VSB 3/4 WCI  23
ALMA           CLOUDY    33  32  97 NE6       29.79F FOG     WCI  27
ANN ARBOR      FOG       33  33 100 E8        29.79F VSB 3/4 WCI  26
BAD AXE        FOG       30  30 100 CALM      29.84F VSB 1/4
CARO           CLOUDY    31  31 100 E5        29.82F FOG     WCI  26
DETROIT CITY   FOG       32  32 100 E8        29.82F VSB 1/2 WCI  25
DETROIT        FOG       33  32  96 E6        29.81F VSB 1/4 WCI  28
FLINT          CLOUDY    32  32 100 E6        29.80S FOG     WCI  26
GROSSE ILE     CLOUDY    32  32  99 E6        29.80F FOG     WCI  27
HILLSDALE      LGT RAIN  32  32 100 E10       29.72F WCI  24
HOWELL         CLOUDY    33  32  97 SE7       29.77F FOG     WCI  27

CITY           SKY/WX    TMP DP  RH WIND       PRES   REMARKS
JACKSON        CLOUDY    34  33  96 E10       29.75F FOG     WCI  26
LAMBERTVILLE   CLOUDY    33  32  94 E6        29.77F FOG     WCI  28
LANSING        CLOUDY    34  32  92 SE7       29.77F FOG     WCI  28
LAPEER         FOG       32  32 100 E5        29.82S VSB 1/2 WCI  27
MASON          CLOUDY    33  33  99 E5        29.76F FOG     WCI  29
MONROE         CLOUDY    33  33 100 E8        29.79F FOG     WCI  25
MT. CLEMENS    CLOUDY    32  32 100 E8        29.81F FOG     WCI  25
PONTIAC        FOG       32  30  92 E9        29.78F VSB 1/2 WCI  24
PORT HOPE        N/A     31  31 100 SE8       29.83F WCI  23
PORT HURON     FOG       32  32 100 E5        29.84F VSB 1   WCI  27
TRI CITIES     FOG       31  31 100 E9        29.82F VSB 1/4 WCI  23
MIDLAND        CLOUDY    32  32  98 NE6       29.82F FOG     WCI  27
TROY           FOG       32  31  98 E5        29.83F VSB 1   WCI  27
SAGINAW HB     CLOUDY    32  30  93 NE7       29.81F FOG     WCI  26
$$
MIZ043>046-050>051-056>058-064>065-071>073-077>080-200900-
SOUTHWEST LOWER MICHIGAN

CITY           SKY/WX    TMP DP  RH WIND       PRES   REMARKS
BATTLE CREEK   LGT RAIN  37  36  96 E7        29.73F FOG     WCI  32
BENTON HARBOR  LGT RAIN  39  36  89 NE8       29.68F FOG     WCI  33
BIG RAPIDS     CLOUDY    33  32  94 E5        29.76F FOG     WCI  29
COLDWATER      RAIN      37  37 100 E9G16     29.71F WCI  30
FREMONT        CLOUDY    35  33  91 E5        29.75R WCI  31
HOLLAND        LGT RAIN  37  34  89 E7        29.73F WCI  32
GRAND RAPIDS   LGT RAIN  35  32  88 E8        29.74F FOG     WCI  29
IONIA          LGT SNOW  33  32  98 E8        29.75F WCI  26
KALAMAZOO      RAIN      38  35  89 E6        29.72S FOG     WCI  33
LUDINGTON      CLOUDY    36  34  93 E5        29.75F FOG     WCI  32
MARSHALL       RAIN      36  36  99 E7        29.72F WCI  30
MOUNT PLEASANT CLOUDY    32  32  99 E3        29.79F FOG
MUSKEGON       LGT RAIN  37  35  92 E3        29.75F FOG
SOUTH HAVEN    LGT RAIN  37  37  97 E5        29.71S WCI  34
$$
MIZ016>042-200900-
NORTHERN LOWER MICHIGAN

CITY           SKY/WX    TMP DP  RH WIND       PRES   REMARKS
ALPENA         FOG       33  31  92 SE7       29.85F VSB 1/2 WCI  27
BEAVER ISLAND  CLOUDY    34  34 100 SE6       29.81S FOG     WCI  29
BELLAIRE       PTCLDY    29  29 100 CALM      29.81F FOG
CADILLAC       CLOUDY    32  32  99 E7        29.77S FOG     WCI  26
CHARLEVOIX     PTCLDY    32  32 100 CALM      29.84S FOG
FRANKFORT      CLOUDY    33  33 100 CALM      29.78F FOG
GAYLORD        FOG       33  30  88 S7        29.80F VSB 1/4 WCI  27
GRAYLING       FOG       32  32 100 E5        29.80F VSB 1/4 WCI  27
HARBOR SPRINGS FOG       32  32 100 E6        29.81F VSB 1/2 WCI  26
HOUGHTON LAKE  FOG       31  31 100 E6        29.80F VSB 1/2 WCI  25
MANISTEE       CLOUDY    34  33  96 E7        29.76F WCI  28
OSCODA         FOG       33  32  96 NE3       29.84F VSB 1/4
PELLSTON       FOG       33  31  92 SE6       29.82S VSB 1/4 WCI  28
ROGERS CITY    FOG       33  32  96 SE6       29.85S VSB 1/2 WCI  27
TRAVERSE CITY  CLOUDY    32  31  96 CALM      29.79F FOG
$$
MIZ007>008-015-200900-
EASTERN UPPER MICHIGAN

CITY           SKY/WX    TMP DP  RH WIND       PRES   REMARKS
KINROSS        MIX PCPN  32  32 100 E6        29.82F VSB 1/2 WCI  26
MACKINAC ISLAN CLOUDY    33  33 100 E5        29.81F FOG     WCI  29
NEWBERRY       FOG       32  32  99 SE5       29.79F VSB 3/4 WCI  27
S. S. MARIE    FOG       33  32  96 E3        29.83S VSB 1/2
MUNISING         N/A     32  31  96 S7        29.78S WCI  26
$$
MIZ004>006-011>014-085-200900-
CENTRAL UPPER MICHIGAN

CITY           SKY/WX    TMP DP  RH WIND       PRES   REMARKS
MANISTIQUE     CLOUDY    33  32  97 SE5       29.79F FOG     WCI  28
ESCANABA       FOG       31  31 100 CALM      29.80S VSB 1/2
SAWYER-GWINN   FOG       29  28  98 S10       29.77S VSB 1/2 WCI  20
$$
MIZ001>003-009>011-084-200900-
WESTERN UPPER MICHIGAN

CITY           SKY/WX    TMP DP  RH WIND       PRES   REMARKS
IRON MOUNTAIN  FOG       30  28  92 SE3       29.75F VSB 1/4
HOUGHTON       CLOUDY    26  25  96 NE3       29.70S FOG
COPPER HARBOR    N/A     36  32  85 SW5       29.72F WCI  32
IRONWOOD       PTCLDY    34  28  79 S10       29.72S WCI  26
$$

ABBREVIATIONS USED IN REMARKS
   TC - TEMPERATURE IN CELSIUS
  WCI - WIND CHILL INDEX
   HX - HEAT INDEX
  VSB - VISIBILITY





USA.gov is the U.S. government's official web portal to all federal, state and local government web resources and services.